Regional Weather Roundup
Issued by NWS

Home | Current Version | Previous Version | Graphics & Text | Print | Product List | Glossary On
Versions: 1 2 3 4 5 6 7 8 9 10 11 12 13 14 15 16 17 18 19 20 21 22 23 24 25 26 27 28 29 30 31 32 33 34 35 36 37 38 39 40 41 42 43 44 45 46 47 48 49 50
000
ASUS43 KFSD 250010
RWRSD

WEATHER ROUNDUP FOR SOUTH DAKOTA
NATIONAL WEATHER SERVICE SIOUX FALLS SD
600 PM CST WED DEC 24 2014

NOTE: "FAIR" INDICATES FEW OR NO CLOUDS BELOW 12,000 FEET WITH NO
SIGNIFICANT WEATHER AND/OR OBSTRUCTIONS TO VISIBILITY.


SDZ001>005-009-010-012>017-250100-
NORTHWEST AND NORTH CENTRAL SOUTH DAKOTA

CITY           SKY/WX    TMP DP  RH WIND       PRES   REMARKS
BUFFALO          N/A     37  28  70 W8        29.40F
FAITH            N/A     33  25  72 SW9       29.48S WCI  25
MOBRIDGE       CLOUDY    26  21  81 S8        29.47F WCI  18
$$

SDZ012>016-024>037-041>051-057-063-072>074-250100-
SOUTHWEST AND SOUTH CENTRAL SOUTH DAKOTA

CITY           SKY/WX    TMP DP  RH WIND       PRES   REMARKS
RAPID CTY ARPT CLOUDY    35  25  66 E5        29.46F
PIERRE         PTCLDY    25  20  81 S5        29.52F WCI  19
CUSTER         CLOUDY    32  18  56 W13       29.50F WCI  22
ELLSWORTH AFB  CLOUDY    36  25  64 S1        29.46F
PHILIP         MOCLDY    32  26  78 CALM      29.51F
PINE RIDGE     CLOUDY    33  23  66 SW9       29.53F WCI  25
SPEARFISH      FAIR      37  27  65 CALM      29.47F
WINNER         FAIR      35  22  58 SW16      29.54F WCI  25
$$

SDZ004>011-016>023-039-040-250100-
NORTHEAST SOUTH DAKOTA

CITY           SKY/WX    TMP DP  RH WIND       PRES   REMARKS
ABERDEEN       CLOUDY    28  25  88 S12       29.56F WCI  18
WATERTOWN      CLOUDY    25  23  92 SW13      29.56F WCI  14
SISSETON         N/A     28  26  92 SW9       29.55F WCI  19
$$

SDZ017-020-022-023-036>040-048>070-250100-
SOUTHEAST SOUTH DAKOTA

CITY           SKY/WX    TMP DP  RH WIND       PRES   REMARKS
SIOUX FALLS    CLOUDY    26  24  92 SW5       29.65F FOG     WCI  20
HURON          CLOUDY    27  25  92 MISG      29.59F
CHAMBERLAIN    CLOUDY    24  21  88 SE8       29.56F WCI  15
MITCHELL       MOCLDY    28  26  92 S9        29.63F WCI  19
YANKTON        PTCLDY    27  23  86 SE6       29.68F WCI  20
$$

ABBREVIATIONS USED IN REMARKS
   TC - TEMPERATURE IN CELSIUS
  WCI - WIND CHILL INDEX
   HX - HEAT INDEX
  VSB - VISIBILITY



USA.gov is the U.S. government's official web portal to all federal, state and local government web resources and services.